Tracking 31011 objects as of 12-Jul-2025
HD Live streaming from Space Station
objects crossing your sky now

STARLINK-30602

Track STARLINK-30602 now!
10-day predictions
STARLINK-30602 is classified as:


NORAD ID: 58081
Int'l Code: 2023-160G
Perigee: 565.3 km
Apogee: 567.1 km
Inclination: 43.0 °
Period: 95.8 minutes
Semi major axis: 6937 km
RCS: Unknown
Launch date: October 18, 2023
Source: United States (US)
Launch site: AIR FORCE EASTERN TEST RANGE (AFETR)
Your satellite tracking list
Your tracking list is empty




NASA's NSSDC Master Catalog

Two Line Element Set (TLE):
1 58081U 23160G   25193.58672394  .00000129  00000-0  24604-4 0  9990
2 58081  43.0046 304.6015 0001337 266.1958  93.8731 15.02537758 96808
Source of the keplerian elements: AFSPC